Фрайбург

Германия     47°59′22″N   7°49′46″E
темп.,
°C
ветер,
м/с
пор.,
м/с
влажн.,
%
обл.,
%
осадки,
мм/ч
давл.,
гПа
погр.,
м
18 октября, пн
пн1823:00+7ююв1179100 0.0 102311
02:00+6ююв1180100 0.0 102413
05:00+5юв11820 0.0 102411
08:00+5ююв11790 0.0 102510
11:00+11зсз21622 0.0 1025230
14:00+15ссз215214 0.0 1024390
17:00+15ссз1163100 0.0 102320
20:00+11юв117495 0.0 102512
19 октября, вт
вт1923:00+10юв117698 0.0 102611
02:00+10ю2262100 0.0 102516
05:00+10ююв2156100 0.0 102515
08:00+11ю2259100 0.0 102519
11:00+14ююз2260100 0.0 102543
14:00+15ю2259100 0.0 102439
17:00+18ю245460 0.0 102283
20:00+13ююв224828 0.0 102316
20 октября, ср
ср2023:00+13ююв22545 0.0 102215
02:00+12ююв2257100 0.0 102016
05:00+11ю225741 0.0 101918
08:00+11ю336374 0.0 101831
11:00+17ююз41157100 0.0 1017831
14:00+20ююз61155100 0.0 1015947
17:00+19ююз496597 0.0 1013363
20:00+15ююв35785 0.0 1012102
21 октября, чт
чт2123:00+15ю367458 0.0 1010147
02:00+15юз71981100 0.8 10101364
05:00+14юз101983100 3.9 10101527
08:00+13юз81580100 4.8 10121157
11:00+14юз716691 0.1 10131617
14:00+16юз9155635 0.2 10111797
17:00+15юз814615 0.0 10111508
20:00+11ююз5116462 0.0 1011397
22 октября, пт
пт2223:00+11ююз4117212 0.0 1010349
02:00+11ююз6147889 0.0 1008796
05:00+11юз71474100 0.2 10081573
08:00+8ююз4786100 2.8 1009335
11:00+10юз61071100 0.5 10111446
14:00+8юз6885100 1.0 10131194
17:00+7зюз359089 1.2 1016593
20:00+6ссв248782 1.9 1020167